Station Historical Data
Daily Summary for August 12, 2017 Units:  English    Metric   Both
« Previous Day
Next Day »
Daily Weekly Monthly Yearly Custom
  High: Low: Average:
Temperature: 88.0 °F 68.9 °F 76.9 °F
Dew Point: 57.3 °F 49.5 °F 53 °F
Humidity: 53 % 32 % 44 %
Wind Speed: 13.0 mph 0.0 mph 2.7 mph
Wind Gust: 15.0 mph - -
Wind:- - SSE
Pressure: 29.88 in 29.84 in -
Precipitation: 0.00 in    
Historical Graphs
 
 
Tabular Data for August 12, 2017
Time Temperature Dew Point Pressure Wind Wind Speed Wind Gust Humidity Rainfall Rate (Hourly) solar
00:02 72.1 °F 53.5 °F 29.85 in East 2.0 mph 8.0 mph 52 % 0.00 in 0.00 W/m2
00:07 72.0 °F 54.0 °F 29.85 in Calm   5.0 mph 53 % 0.00 in 0.00 W/m2
00:12 72.0 °F 53.4 °F 29.85 in East 6.0 mph 8.0 mph 52 % 0.00 in 0.00 W/m2
00:17 71.9 °F 53.3 °F 29.85 in East 4.0 mph 6.0 mph 52 % 0.00 in 0.00 W/m2
00:22 71.9 °F 53.9 °F 29.85 in East 5.0 mph 6.0 mph 53 % 0.00 in 0.00 W/m2
00:27 71.9 °F 53.9 °F 29.85 in East 2.0 mph 7.0 mph 53 % 0.00 in 0.00 W/m2
00:32 71.8 °F 53.8 °F 29.85 in East 4.0 mph 7.0 mph 53 % 0.00 in 0.00 W/m2
00:37 71.8 °F 53.8 °F 29.85 in East 8.0 mph 8.0 mph 53 % 0.00 in 0.00 W/m2
00:42 71.7 °F 53.7 °F 29.85 in East 6.0 mph 8.0 mph 53 % 0.00 in 0.00 W/m2
00:47 71.7 °F 53.7 °F 29.85 in East 4.0 mph 9.0 mph 53 % 0.00 in 0.00 W/m2
00:52 71.6 °F 53.6 °F 29.85 in ESE 6.0 mph 9.0 mph 53 % 0.00 in 0.00 W/m2
00:57 71.6 °F 53.6 °F 29.85 in ESE 7.0 mph 12.0 mph 53 % 0.00 in 0.00 W/m2
01:02 71.5 °F 53.5 °F 29.85 in ESE 6.0 mph 11.0 mph 53 % 0.00 in 0.00 W/m2
01:07 71.5 °F 53.5 °F 29.85 in Calm   12.0 mph 53 % 0.00 in 0.00 W/m2
01:12 71.5 °F 53.5 °F 29.85 in Calm   8.0 mph 53 % 0.00 in 0.00 W/m2
01:17 71.5 °F 53.5 °F 29.85 in East 7.0 mph 14.0 mph 53 % 0.00 in 0.00 W/m2
01:22 71.4 °F 52.9 °F 29.85 in ESE 7.0 mph 11.0 mph 52 % 0.00 in 0.00 W/m2
01:27 71.4 °F 53.4 °F 29.85 in ESE 6.0 mph 12.0 mph 53 % 0.00 in 0.00 W/m2
01:32 71.4 °F 52.9 °F 29.85 in East 7.0 mph 12.0 mph 52 % 0.00 in 0.00 W/m2
01:37 71.4 °F 52.9 °F 29.85 in ESE 6.0 mph 12.0 mph 52 % 0.00 in 0.00 W/m2
01:42 71.4 °F 52.9 °F 29.85 in ESE 8.0 mph 11.0 mph 52 % 0.00 in 0.00 W/m2
01:47 71.3 °F 52.8 °F 29.85 in East 7.0 mph 13.0 mph 52 % 0.00 in 0.00 W/m2
01:52 71.3 °F 52.8 °F 29.85 in ESE 7.0 mph 11.0 mph 52 % 0.00 in 0.00 W/m2
01:57 71.3 °F 52.8 °F 29.85 in East 6.0 mph 13.0 mph 52 % 0.00 in 0.00 W/m2
02:02 71.3 °F 52.8 °F 29.85 in Calm   11.0 mph 52 % 0.00 in 0.00 W/m2
02:03 71.3 °F 52.8 °F 29.85 in East 8.0 mph 11.0 mph 52 % 0.00 in 0.00 W/m2
02:08 71.3 °F 52.8 °F 29.85 in East 5.0 mph 9.0 mph 52 % 0.00 in 0.00 W/m2
02:13 71.3 °F 52.8 °F 29.85 in East 8.0 mph 11.0 mph 52 % 0.00 in 0.00 W/m2
02:18 71.2 °F 52.7 °F 29.85 in ESE 2.0 mph 11.0 mph 52 % 0.00 in 0.00 W/m2
02:23 71.2 °F 52.7 °F 29.85 in East 2.0 mph 14.0 mph 52 % 0.00 in 0.00 W/m2
02:28 71.1 °F 52.6 °F 29.85 in ESE 4.0 mph 13.0 mph 52 % 0.00 in 0.00 W/m2
02:33 71.0 °F 52.5 °F 29.85 in ESE 9.0 mph 12.0 mph 52 % 0.00 in 0.00 W/m2
02:38 71.0 °F 52.5 °F 29.85 in ESE 7.0 mph 12.0 mph 52 % 0.00 in 0.00 W/m2
02:43 70.9 °F 52.4 °F 29.85 in East 9.0 mph 11.0 mph 52 % 0.00 in 0.00 W/m2
02:48 70.9 °F 52.4 °F 29.85 in East 4.0 mph 13.0 mph 52 % 0.00 in 0.00 W/m2
02:53 70.8 °F 52.3 °F 29.85 in East 4.0 mph 12.0 mph 52 % 0.00 in 0.00 W/m2
02:58 70.8 °F 52.3 °F 29.85 in ESE 4.0 mph 13.0 mph 52 % 0.00 in 0.00 W/m2
03:03 70.7 °F 52.2 °F 29.85 in Calm   9.0 mph 52 % 0.00 in 0.00 W/m2
03:08 70.6 °F 52.1 °F 29.85 in ESE 4.0 mph 8.0 mph 52 % 0.00 in 0.00 W/m2
03:13 70.6 °F 52.1 °F 29.85 in Calm   9.0 mph 52 % 0.00 in 0.00 W/m2
03:18 70.5 °F 52.0 °F 29.85 in East 5.0 mph 11.0 mph 52 % 0.00 in 0.00 W/m2
03:23 70.5 °F 52.0 °F 29.85 in East 6.0 mph 11.0 mph 52 % 0.00 in 0.00 W/m2
03:28 70.4 °F 52.0 °F 29.85 in Calm   9.0 mph 52 % 0.00 in 0.00 W/m2
03:33 70.3 °F 51.9 °F 29.85 in Calm   12.0 mph 52 % 0.00 in 0.00 W/m2
03:38 70.3 °F 51.9 °F 29.84 in Calm   11.0 mph 52 % 0.00 in 0.00 W/m2
03:44 70.3 °F 51.9 °F 29.85 in Calm   13.0 mph 52 % 0.00 in 0.00 W/m2
03:49 70.2 °F 51.8 °F 29.84 in East 8.0 mph 11.0 mph 52 % 0.00 in 0.00 W/m2
03:54 70.1 °F 51.7 °F 29.84 in East 7.0 mph 11.0 mph 52 % 0.00 in 0.00 W/m2
03:59 70.1 °F 51.7 °F 29.84 in East 9.0 mph 12.0 mph 52 % 0.00 in 0.00 W/m2
04:04 70.0 °F 51.6 °F 29.84 in East 5.0 mph 9.0 mph 52 % 0.00 in 0.00 W/m2
04:09 70.0 °F 51.6 °F 29.84 in East 6.0 mph 11.0 mph 52 % 0.00 in 0.00 W/m2
04:12 70.0 °F 51.6 °F 29.84 in Calm   9.0 mph 52 % 0.00 in 0.00 W/m2
04:17 70.0 °F 51.6 °F 29.84 in ESE 8.0 mph 9.0 mph 52 % 0.00 in 0.00 W/m2
04:22 70.0 °F 51.6 °F 29.84 in ESE 6.0 mph 8.0 mph 52 % 0.00 in 0.00 W/m2
04:27 69.9 °F 51.5 °F 29.84 in East 4.0 mph 12.0 mph 52 % 0.00 in 0.00 W/m2
04:32 69.9 °F 51.0 °F 29.84 in Calm   11.0 mph 51 % 0.00 in 0.00 W/m2
04:37 69.8 °F 50.9 °F 29.84 in ESE 9.0 mph 13.0 mph 51 % 0.00 in 0.00 W/m2
04:42 69.7 °F 50.8 °F 29.84 in East 4.0 mph 11.0 mph 51 % 0.00 in 0.00 W/m2
04:44 69.7 °F 50.8 °F 29.84 in East 1.0 mph 12.0 mph 51 % 0.00 in 0.00 W/m2
04:49 69.7 °F 50.8 °F 29.84 in East 7.0 mph 12.0 mph 51 % 0.00 in 0.00 W/m2
04:54 69.6 °F 50.7 °F 29.84 in East 6.0 mph 13.0 mph 51 % 0.00 in 0.00 W/m2
04:59 69.5 °F 50.6 °F 29.84 in East 12.0 mph 13.0 mph 51 % 0.00 in 0.00 W/m2
05:04 69.5 °F 50.6 °F 29.84 in ESE 4.0 mph 13.0 mph 51 % 0.00 in 0.00 W/m2
05:09 69.4 °F 50.5 °F 29.84 in ESE 8.0 mph 12.0 mph 51 % 0.00 in 0.00 W/m2
05:14 69.4 °F 50.5 °F 29.84 in East 7.0 mph 13.0 mph 51 % 0.00 in 0.00 W/m2
05:19 69.4 °F 50.5 °F 29.84 in East 13.0 mph 14.0 mph 51 % 0.00 in 0.00 W/m2
05:24 69.3 °F 50.4 °F 29.84 in ESE 8.0 mph 13.0 mph 51 % 0.00 in 0.00 W/m2
05:29 69.3 °F 50.4 °F 29.84 in ESE 1.0 mph 15.0 mph 51 % 0.00 in 0.00 W/m2
05:32 69.3 °F 50.4 °F 29.84 in ESE 7.0 mph 14.0 mph 51 % 0.00 in 0.00 W/m2
05:37 69.2 °F 50.3 °F 29.84 in ESE 2.0 mph 12.0 mph 51 % 0.00 in 0.00 W/m2
05:42 69.2 °F 50.3 °F 29.84 in ESE 2.0 mph 9.0 mph 51 % 0.00 in 0.00 W/m2
05:47 69.2 °F 50.3 °F 29.84 in East 6.0 mph 11.0 mph 51 % 0.00 in 0.00 W/m2
05:52 69.2 °F 50.3 °F 29.84 in ESE 5.0 mph 11.0 mph 51 % 0.00 in 0.00 W/m2
05:57 69.1 °F 50.2 °F 29.84 in East 1.0 mph 9.0 mph 51 % 0.00 in 0.00 W/m2
06:02 69.1 °F 50.2 °F 29.85 in East 13.0 mph 13.0 mph 51 % 0.00 in 0.00 W/m2
06:07 69.1 °F 50.2 °F 29.85 in ESE 5.0 mph 9.0 mph 51 % 0.00 in 0.00 W/m2
06:12 69.1 °F 50.2 °F 29.85 in East 7.0 mph 13.0 mph 51 % 0.00 in 5.00 W/m2
06:17 69.0 °F 50.1 °F 29.85 in Calm   11.0 mph 51 % 0.00 in 7.00 W/m2
06:22 69.0 °F 50.1 °F 29.85 in ESE 5.0 mph 11.0 mph 51 % 0.00 in 11.00 W/m2
06:27 69.0 °F 50.1 °F 29.85 in East 4.0 mph 12.0 mph 51 % 0.00 in 14.00 W/m2
06:32 68.9 °F 49.5 °F 29.85 in ESE 5.0 mph 12.0 mph 50 % 0.00 in 18.00 W/m2
06:37 68.9 °F 49.5 °F 29.85 in East 5.0 mph 13.0 mph 50 % 0.00 in 21.00 W/m2
06:42 68.9 °F 49.5 °F 29.85 in ESE 6.0 mph 12.0 mph 50 % 0.00 in 25.00 W/m2
06:47 69.0 °F 49.6 °F 29.85 in ESE 7.0 mph 9.0 mph 50 % 0.00 in 32.00 W/m2
06:52 69.0 °F 49.6 °F 29.85 in Calm   12.0 mph 50 % 0.00 in 42.00 W/m2
06:57 69.0 °F 50.1 °F 29.85 in ESE 1.0 mph 9.0 mph 51 % 0.00 in 53.00 W/m2
07:02 69.0 °F 50.1 °F 29.85 in Calm   11.0 mph 51 % 0.00 in 67.00 W/m2
07:07 69.0 °F 50.1 °F 29.86 in ESE 7.0 mph 11.0 mph 51 % 0.00 in 79.00 W/m2
07:12 69.0 °F 50.1 °F 29.86 in Calm   13.0 mph 51 % 0.00 in 90.00 W/m2
07:17 69.0 °F 50.1 °F 29.86 in Calm   13.0 mph 51 % 0.00 in 111.00 W/m2
07:22 69.0 °F 50.7 °F 29.86 in ESE 5.0 mph 13.0 mph 52 % 0.00 in 125.00 W/m2
07:27 69.0 °F 50.7 °F 29.86 in ESE 6.0 mph 11.0 mph 52 % 0.00 in 141.00 W/m2
07:32 69.0 °F 50.7 °F 29.86 in ESE 9.0 mph 11.0 mph 52 % 0.00 in 160.00 W/m2
07:35 68.9 °F 50.6 °F 29.86 in Calm   13.0 mph 52 % 0.00 in 169.00 W/m2
07:40 68.9 °F 50.6 °F 29.86 in Calm   13.0 mph 52 % 0.00 in 190.00 W/m2
07:45 69.0 °F 50.7 °F 29.87 in Calm   12.0 mph 52 % 0.00 in 207.00 W/m2
07:50 69.0 °F 50.7 °F 29.87 in ESE 7.0 mph 9.0 mph 52 % 0.00 in 225.00 W/m2
07:55 69.1 °F 50.8 °F 29.87 in ESE 5.0 mph 13.0 mph 52 % 0.00 in 241.00 W/m2
08:00 69.2 °F 51.4 °F 29.87 in Calm   11.0 mph 53 % 0.00 in 262.00 W/m2
08:05 69.2 °F 51.4 °F 29.87 in East 4.0 mph 13.0 mph 53 % 0.00 in 278.00 W/m2
08:10 69.3 °F 51.5 °F 29.87 in Calm   11.0 mph 53 % 0.00 in 294.00 W/m2
08:15 69.4 °F 51.5 °F 29.88 in Calm   9.0 mph 53 % 0.00 in 308.00 W/m2
08:20 69.5 °F 51.6 °F 29.88 in Calm   11.0 mph 53 % 0.00 in 325.00 W/m2
08:25 69.7 °F 51.3 °F 29.88 in Calm   13.0 mph 52 % 0.00 in 341.00 W/m2
08:30 69.9 °F 52.0 °F 29.88 in Calm   9.0 mph 53 % 0.00 in 355.00 W/m2
08:35 70.1 °F 52.2 °F 29.88 in Calm   11.0 mph 53 % 0.00 in 371.00 W/m2
08:40 70.3 °F 52.4 °F 29.88 in ESE 7.0 mph 13.0 mph 53 % 0.00 in 390.00 W/m2
08:45 70.4 °F 52.0 °F 29.88 in ESE 6.0 mph 11.0 mph 52 % 0.00 in 404.00 W/m2
08:51 70.7 °F 51.7 °F 29.88 in Calm   11.0 mph 51 % 0.00 in 420.00 W/m2
08:56 71.0 °F 52.0 °F 29.88 in Calm   9.0 mph 51 % 0.00 in 436.00 W/m2
09:01 71.2 °F 52.2 °F 29.88 in Calm   11.0 mph 51 % 0.00 in 452.00 W/m2
09:06 71.5 °F 52.4 °F 29.88 in Calm   9.0 mph 51 % 0.00 in 468.00 W/m2
09:11 71.9 °F 52.8 °F 29.88 in Calm   6.0 mph 51 % 0.00 in 483.00 W/m2
09:16 72.3 °F 53.2 °F 29.88 in ESE 4.0 mph 4.0 mph 51 % 0.00 in 499.00 W/m2
09:21 72.6 °F 53.5 °F 29.88 in Calm   5.0 mph 51 % 0.00 in 513.00 W/m2
09:26 73.0 °F 53.3 °F 29.88 in Calm   7.0 mph 50 % 0.00 in 527.00 W/m2
09:31 73.3 °F 53.6 °F 29.88 in Calm   7.0 mph 50 % 0.00 in 541.00 W/m2
09:36 73.6 °F 53.3 °F 29.88 in Calm   7.0 mph 49 % 0.00 in 554.00 W/m2
09:41 74.0 °F 53.7 °F 29.88 in Calm   4.0 mph 49 % 0.00 in 571.00 W/m2
09:46 74.3 °F 53.9 °F 29.88 in Calm   2.0 mph 49 % 0.00 in 584.00 W/m2
09:51 74.7 °F 54.8 °F 29.88 in Calm     50 % 0.00 in 598.00 W/m2
09:56 75.0 °F 54.6 °F 29.88 in Calm   4.0 mph 49 % 0.00 in 610.00 W/m2
10:01 75.5 °F 54.5 °F 29.88 in Calm     48 % 0.00 in 624.00 W/m2
10:06 76.0 °F 53.2 °F 29.88 in Calm     45 % 0.00 in 638.00 W/m2
10:11 76.3 °F 53.4 °F 29.88 in Calm   1.0 mph 45 % 0.00 in 649.00 W/m2
10:16 76.6 °F 51.8 °F 29.88 in Calm     42 % 0.00 in 663.00 W/m2
10:21 77.0 °F 54.1 °F 29.88 in Calm     45 % 0.00 in 675.00 W/m2
10:26 77.6 °F 54.0 °F 29.88 in Calm     44 % 0.00 in 686.00 W/m2
10:31 78.1 °F 53.8 °F 29.88 in Calm     43 % 0.00 in 694.00 W/m2
10:36 78.6 °F 54.3 °F 29.88 in ESE 1.0 mph 1.0 mph 43 % 0.00 in 708.00 W/m2
10:41 79.1 °F 54.7 °F 29.88 in Calm     43 % 0.00 in 719.00 W/m2
10:46 79.6 °F 55.8 °F 29.88 in ESE 4.0 mph 4.0 mph 44 % 0.00 in 728.00 W/m2
10:51 79.8 °F 54.7 °F 29.88 in Calm   4.0 mph 42 % 0.00 in 740.00 W/m2
10:56 80.0 °F 55.5 °F 29.88 in Calm     43 % 0.00 in 751.00 W/m2
11:01 80.4 °F 57.1 °F 29.88 in ESE 2.0 mph 4.0 mph 45 % 0.00 in 763.00 W/m2
11:06 80.7 °F 55.5 °F 29.88 in ESE 7.0 mph 7.0 mph 42 % 0.00 in 772.00 W/m2
11:11 81.0 °F 55.8 °F 29.88 in South 5.0 mph 10.0 mph 42 % 0.00 in 780.00 W/m2
11:16 81.3 °F 56.7 °F 29.88 in South 1.0 mph 5.0 mph 43 % 0.00 in 788.00 W/m2
11:21 81.6 °F 55.6 °F 29.88 in Calm     41 % 0.00 in 796.00 W/m2
11:26 82.0 °F 56.0 °F 29.88 in Calm     41 % 0.00 in 805.00 W/m2
11:31 82.3 °F 55.6 °F 29.88 in WSW 3.0 mph 3.0 mph 40 % 0.00 in 810.00 W/m2
11:36 82.7 °F 56.0 °F 29.88 in Calm     40 % 0.00 in 817.00 W/m2
11:41 83.0 °F 56.2 °F 29.88 in Calm     40 % 0.00 in 823.00 W/m2
11:46 83.3 °F 56.5 °F 29.88 in West 4.0 mph 5.0 mph 40 % 0.00 in 831.00 W/m2
11:51 83.6 °F 56.8 °F 29.88 in West 3.0 mph 5.0 mph 40 % 0.00 in 840.00 W/m2
11:56 83.9 °F 54.9 °F 29.88 in West 2.0 mph 3.0 mph 37 % 0.00 in 844.00 W/m2
12:01 84.0 °F 55.0 °F 29.88 in Calm   1.0 mph 37 % 0.00 in 849.00 W/m2
12:06 84.1 °F 55.0 °F 29.88 in NW 2.0 mph 3.0 mph 37 % 0.00 in 851.00 W/m2
12:11 84.2 °F 54.4 °F 29.88 in Calm     36 % 0.00 in 856.00 W/m2
12:16 84.3 °F 55.2 °F 29.88 in Calm     37 % 0.00 in 861.00 W/m2
12:21 84.6 °F 54.7 °F 29.88 in WNW 5.0 mph 5.0 mph 36 % 0.00 in 863.00 W/m2
12:26 85.0 °F 54.3 °F 29.88 in West 2.0 mph 3.0 mph 35 % 0.00 in 868.00 W/m2
12:31 85.5 °F 54.0 °F 29.88 in Calm     34 % 0.00 in 868.00 W/m2
12:36 85.7 °F 54.9 °F 29.88 in Calm     35 % 0.00 in 870.00 W/m2
12:41 85.8 °F 55.8 °F 29.88 in Calm   4.0 mph 36 % 0.00 in 872.00 W/m2
12:46 86.3 °F 56.2 °F 29.87 in West 1.0 mph 3.0 mph 36 % 0.00 in 875.00 W/m2
12:51 86.4 °F 54.7 °F 29.88 in Calm     34 % 0.00 in 877.00 W/m2
12:56 86.4 °F 54.7 °F 29.88 in Calm     34 % 0.00 in 881.00 W/m2
13:01 86.8 °F 55.9 °F 29.88 in Calm   4.0 mph 35 % 0.00 in 889.00 W/m2
13:06 87.2 °F 55.4 °F 29.87 in SW 1.0 mph 1.0 mph 34 % 0.00 in 886.00 W/m2
13:11 87.6 °F 55.8 °F 29.87 in SSW 8.0 mph 9.0 mph 34 % 0.00 in 882.00 W/m2
13:16 88.0 °F 56.1 °F 29.88 in West 8.0 mph 10.0 mph 34 % 0.00 in 875.00 W/m2
13:18 87.9 °F 55.2 °F 29.88 in West 7.0 mph 12.0 mph 33 % 0.00 in 877.00 W/m2
13:23 87.5 °F 56.5 °F 29.88 in WSW 6.0 mph 8.0 mph 35 % 0.00 in 875.00 W/m2
13:28 87.4 °F 55.6 °F 29.87 in West 8.0 mph 11.0 mph 34 % 0.00 in 870.00 W/m2
13:33 87.4 °F 57.2 °F 29.87 in WSW 2.0 mph 13.0 mph 36 % 0.00 in 870.00 W/m2
13:38 87.5 °F 57.3 °F 29.87 in Calm   12.0 mph 36 % 0.00 in 870.00 W/m2
13:43 87.4 °F 55.6 °F 29.87 in WSW 4.0 mph 11.0 mph 34 % 0.00 in 867.00 W/m2
13:48 87.4 °F 54.8 °F 29.87 in WNW 6.0 mph 8.0 mph 33 % 0.00 in 861.00 W/m2
13:53 87.4 °F 55.6 °F 29.87 in West 1.0 mph 7.0 mph 34 % 0.00 in 858.00 W/m2
13:58 87.4 °F 55.6 °F 29.87 in WSW 4.0 mph 10.0 mph 34 % 0.00 in 856.00 W/m2
14:03 87.4 °F 57.2 °F 29.87 in Calm   8.0 mph 36 % 0.00 in 853.00 W/m2
14:08 87.3 °F 56.3 °F 29.87 in SSW 4.0 mph 10.0 mph 35 % 0.00 in 853.00 W/m2
14:13 87.3 °F 54.7 °F 29.87 in West 4.0 mph 8.0 mph 33 % 0.00 in 842.00 W/m2
14:18 87.2 °F 55.4 °F 29.87 in WSW 6.0 mph 9.0 mph 34 % 0.00 in 837.00 W/m2
14:23 87.2 °F 55.4 °F 29.87 in WSW 6.0 mph 8.0 mph 34 % 0.00 in 835.00 W/m2
14:28 87.6 °F 55.0 °F 29.87 in Calm   5.0 mph 33 % 0.00 in 830.00 W/m2
14:33 87.7 °F 55.9 °F 29.86 in WSW 4.0 mph 10.0 mph 34 % 0.00 in 809.00 W/m2
14:38 87.9 °F 56.1 °F 29.86 in Calm   5.0 mph 34 % 0.00 in 810.00 W/m2
14:43 87.7 °F 55.1 °F 29.86 in Calm   3.0 mph 33 % 0.00 in 805.00 W/m2
14:44 87.6 °F 55.0 °F 29.86 in West 3.0 mph 4.0 mph 33 % 0.00 in 803.00 W/m2
14:49 87.4 °F 54.8 °F 29.86 in Calm   10.0 mph 33 % 0.00 in 796.00 W/m2
14:54 87.6 °F 55.8 °F 29.86 in SW 1.0 mph 4.0 mph 34 % 0.00 in 784.00 W/m2
15:00 87.7 °F 55.9 °F 29.86 in West 2.0 mph 10.0 mph 34 % 0.00 in 775.00 W/m2
15:05 87.8 °F 55.2 °F 29.86 in Calm   10.0 mph 33 % 0.00 in 768.00 W/m2
15:09 87.8 °F 55.2 °F 29.86 in West 7.0 mph 14.0 mph 33 % 0.00 in 747.00 W/m2
15:15 87.8 °F 56.0 °F 29.86 in Calm   8.0 mph 34 % 0.00 in 745.00 W/m2
15:20 87.7 °F 55.1 °F 29.86 in West 3.0 mph 10.0 mph 33 % 0.00 in 742.00 W/m2
15:25 87.3 °F 55.5 °F 29.86 in Calm   4.0 mph 34 % 0.00 in 729.00 W/m2
15:30 87.2 °F 56.2 °F 29.86 in West 4.0 mph 9.0 mph 35 % 0.00 in 719.00 W/m2
15:35 86.8 °F 54.3 °F 29.85 in Calm   10.0 mph 33 % 0.00 in 712.00 W/m2
15:40 86.6 °F 54.9 °F 29.85 in West 5.0 mph 8.0 mph 34 % 0.00 in 698.00 W/m2
15:45 86.5 °F 54.0 °F 29.85 in Calm   11.0 mph 33 % 0.00 in 679.00 W/m2
15:50 86.4 °F 54.7 °F 29.85 in NW 3.0 mph 12.0 mph 34 % 0.00 in 675.00 W/m2
15:55 86.4 °F 55.5 °F 29.85 in WSW 11.0 mph 12.0 mph 35 % 0.00 in 649.00 W/m2
16:00 86.6 °F 54.9 °F 29.85 in Calm   12.0 mph 34 % 0.00 in 649.00 W/m2
16:05 86.6 °F 54.9 °F 29.85 in WSW 4.0 mph 9.0 mph 34 % 0.00 in 638.00 W/m2
16:10 86.7 °F 54.2 °F 29.85 in SW 6.0 mph 10.0 mph 33 % 0.00 in 621.00 W/m2
16:15 86.8 °F 55.9 °F 29.85 in WSW 5.0 mph 10.0 mph 35 % 0.00 in 610.00 W/m2
16:20 86.9 °F 53.5 °F 29.85 in WSW 9.0 mph 10.0 mph 32 % 0.00 in 591.00 W/m2
16:25 86.8 °F 53.4 °F 29.85 in Calm   8.0 mph 32 % 0.00 in 582.00 W/m2
16:30 86.8 °F 55.1 °F 29.85 in Calm   6.0 mph 34 % 0.00 in 571.00 W/m2
16:35 86.7 °F 55.0 °F 29.85 in SW 5.0 mph 7.0 mph 34 % 0.00 in 554.00 W/m2
16:40 86.6 °F 54.9 °F 29.85 in Calm   3.0 mph 34 % 0.00 in 545.00 W/m2
16:45 86.5 °F 54.0 °F 29.85 in WSW 6.0 mph 9.0 mph 33 % 0.00 in 531.00 W/m2
16:50 86.6 °F 54.1 °F 29.85 in West 5.0 mph 6.0 mph 33 % 0.00 in 519.00 W/m2
16:55 86.5 °F 54.0 °F 29.85 in Calm   8.0 mph 33 % 0.00 in 496.00 W/m2
17:00 86.2 °F 52.9 °F 29.85 in WNW 6.0 mph 6.0 mph 32 % 0.00 in 476.00 W/m2
17:05 86.1 °F 53.7 °F 29.85 in Calm   7.0 mph 33 % 0.00 in 462.00 W/m2
17:10 85.9 °F 52.7 °F 29.85 in Calm   8.0 mph 32 % 0.00 in 452.00 W/m2
17:15 85.7 °F 53.3 °F 29.85 in SW 7.0 mph 11.0 mph 33 % 0.00 in 434.00 W/m2
17:20 85.8 °F 52.6 °F 29.85 in Calm   9.0 mph 32 % 0.00 in 424.00 W/m2
17:25 85.8 °F 53.4 °F 29.85 in WSW 4.0 mph 9.0 mph 33 % 0.00 in 406.00 W/m2
17:30 85.7 °F 54.9 °F 29.84 in Calm   5.0 mph 35 % 0.00 in 392.00 W/m2
17:35 85.5 °F 54.0 °F 29.85 in Calm   5.0 mph 34 % 0.00 in 374.00 W/m2
17:40 85.2 °F 53.7 °F 29.84 in Calm   6.0 mph 34 % 0.00 in 360.00 W/m2
17:45 85.0 °F 53.5 °F 29.84 in Calm   7.0 mph 34 % 0.00 in 353.00 W/m2
17:50 84.9 °F 54.2 °F 29.84 in West 4.0 mph 11.0 mph 35 % 0.00 in 336.00 W/m2
17:55 84.7 °F 53.3 °F 29.84 in Calm   3.0 mph 34 % 0.00 in 320.00 W/m2
18:00 84.5 °F 53.1 °F 29.84 in Calm   2.0 mph 34 % 0.00 in 302.00 W/m2
18:05 84.4 °F 53.0 °F 29.84 in Calm   5.0 mph 34 % 0.00 in 290.00 W/m2
18:10 84.3 °F 52.9 °F 29.84 in West 1.0 mph 2.0 mph 34 % 0.00 in 272.00 W/m2
18:15 84.2 °F 52.8 °F 29.84 in Calm   1.0 mph 34 % 0.00 in 255.00 W/m2
18:20 84.1 °F 53.5 °F 29.84 in Calm   2.0 mph 35 % 0.00 in 239.00 W/m2
18:25 84.0 °F 52.6 °F 29.84 in Calm   1.0 mph 34 % 0.00 in 223.00 W/m2
18:30 83.9 °F 54.1 °F 29.84 in Calm   2.0 mph 36 % 0.00 in 211.00 W/m2
18:35 83.8 °F 54.8 °F 29.84 in West 1.0 mph 1.0 mph 37 % 0.00 in 193.00 W/m2
18:40 83.6 °F 54.6 °F 29.84 in Calm   1.0 mph 37 % 0.00 in 179.00 W/m2
18:45 83.5 °F 54.5 °F 29.84 in Calm   3.0 mph 37 % 0.00 in 162.00 W/m2
18:50 83.2 °F 55.0 °F 29.84 in Calm   3.0 mph 38 % 0.00 in 144.00 W/m2
18:55 82.8 °F 54.6 °F 29.84 in Calm   1.0 mph 38 % 0.00 in 125.00 W/m2
19:00 82.4 °F 55.0 °F 29.84 in Calm   3.0 mph 39 % 0.00 in 107.00 W/m2
19:06 82.0 °F 54.6 °F 29.84 in West 1.0 mph 3.0 mph 39 % 0.00 in 90.00 W/m2
19:11 81.5 °F 54.9 °F 29.84 in Calm   2.0 mph 40 % 0.00 in 74.00 W/m2
19:16 81.0 °F 54.4 °F 29.84 in Calm   3.0 mph 40 % 0.00 in 62.00 W/m2
19:21 80.6 °F 54.8 °F 29.84 in Calm   1.0 mph 41 % 0.00 in 46.00 W/m2
19:26 80.2 °F 54.4 °F 29.85 in Calm   2.0 mph 41 % 0.00 in 35.00 W/m2
19:31 79.8 °F 54.7 °F 29.84 in Calm   5.0 mph 42 % 0.00 in 28.00 W/m2
19:36 79.5 °F 54.4 °F 29.85 in Calm   2.0 mph 42 % 0.00 in 21.00 W/m2
19:41 79.1 °F 54.1 °F 29.85 in Calm     42 % 0.00 in 18.00 W/m2
19:46 78.8 °F 53.8 °F 29.85 in Calm   1.0 mph 42 % 0.00 in 14.00 W/m2
19:51 78.4 °F 53.4 °F 29.85 in West 1.0 mph 1.0 mph 42 % 0.00 in 12.00 W/m2
19:56 78.1 °F 53.2 °F 29.85 in Calm   1.0 mph 42 % 0.00 in 9.00 W/m2
19:57 78.1 °F 53.2 °F 29.85 in Calm   1.0 mph 42 % 0.00 in 9.00 W/m2
20:02 77.9 °F 53.0 °F 29.85 in Calm   1.0 mph 42 % 0.00 in 5.00 W/m2
20:07 77.7 °F 52.8 °F 29.85 in Calm     42 % 0.00 in 0.00 W/m2
20:17 77.3 °F 51.8 °F 29.85 in Calm     41 % 0.00 in 0.00 W/m2
20:21 76.9 °F 52.1 °F 29.85 in Calm   4.0 mph 42 % 0.00 in 0.00 W/m2
20:25 76.6 °F 52.5 °F 29.85 in Calm   1.0 mph 43 % 0.00 in 0.00 W/m2
20:27 76.4 °F 52.3 °F 29.85 in Calm   1.0 mph 43 % 0.00 in 0.00 W/m2
20:31 76.1 °F 52.6 °F 29.85 in Calm   1.0 mph 44 % 0.00 in 0.00 W/m2
20:36 75.9 °F 52.5 °F 29.85 in Calm     44 % 0.00 in 0.00 W/m2
20:41 75.7 °F 52.3 °F 29.85 in Calm     44 % 0.00 in 0.00 W/m2
20:46 75.5 °F 52.1 °F 29.85 in Calm     44 % 0.00 in 0.00 W/m2
20:51 75.4 °F 52.0 °F 29.86 in Calm     44 % 0.00 in 0.00 W/m2
20:56 75.3 °F 52.5 °F 29.86 in Calm     45 % 0.00 in 0.00 W/m2
21:01 75.2 °F 52.4 °F 29.86 in Calm     45 % 0.00 in 0.00 W/m2
21:06 75.1 °F 52.3 °F 29.86 in Calm   1.0 mph 45 % 0.00 in 0.00 W/m2
21:11 75.0 °F 52.2 °F 29.86 in Calm     45 % 0.00 in 0.00 W/m2
21:16 74.7 °F 52.0 °F 29.86 in Calm     45 % 0.00 in 0.00 W/m2
21:21 74.4 °F 51.7 °F 29.86 in Calm     45 % 0.00 in 0.00 W/m2
21:26 74.2 °F 51.5 °F 29.86 in Calm     45 % 0.00 in 0.00 W/m2
21:31 74.0 °F 51.3 °F 29.86 in Calm     45 % 0.00 in 0.00 W/m2
21:36 73.9 °F 51.2 °F 29.86 in Calm     45 % 0.00 in 0.00 W/m2
21:41 73.8 °F 51.2 °F 29.86 in Calm     45 % 0.00 in 0.00 W/m2
21:46 73.7 °F 51.1 °F 29.86 in SW 4.0 mph 4.0 mph 45 % 0.00 in 0.00 W/m2
21:51 73.6 °F 51.6 °F 29.86 in SSW 5.0 mph 5.0 mph 46 % 0.00 in 0.00 W/m2
21:56 73.5 °F 51.5 °F 29.86 in Calm     46 % 0.00 in 0.00 W/m2
22:01 73.5 °F 51.5 °F 29.86 in South 3.0 mph 4.0 mph 46 % 0.00 in 0.00 W/m2
22:06 73.4 °F 51.4 °F 29.86 in South 2.0 mph 4.0 mph 46 % 0.00 in 0.00 W/m2
22:11 73.3 °F 51.3 °F 29.86 in SSE 4.0 mph 6.0 mph 46 % 0.00 in 0.00 W/m2
22:16 73.2 °F 51.8 °F 29.86 in SSE 4.0 mph 4.0 mph 47 % 0.00 in 0.00 W/m2
22:21 73.1 °F 51.7 °F 29.86 in SE 4.0 mph 4.0 mph 47 % 0.00 in 0.00 W/m2
22:26 73.0 °F 51.6 °F 29.86 in ESE 5.0 mph 5.0 mph 47 % 0.00 in 0.00 W/m2
22:31 73.0 °F 51.6 °F 29.86 in Calm   7.0 mph 47 % 0.00 in 0.00 W/m2
22:36 72.9 °F 51.5 °F 29.86 in Calm   8.0 mph 47 % 0.00 in 0.00 W/m2
22:41 72.9 °F 51.5 °F 29.86 in ESE 2.0 mph 12.0 mph 47 % 0.00 in 0.00 W/m2
22:46 72.9 °F 51.5 °F 29.86 in East 6.0 mph 11.0 mph 47 % 0.00 in 0.00 W/m2
22:51 72.8 °F 51.4 °F 29.86 in ESE 1.0 mph 7.0 mph 47 % 0.00 in 0.00 W/m2
22:56 72.8 °F 51.4 °F 29.85 in ESE 12.0 mph 12.0 mph 47 % 0.00 in 0.00 W/m2
23:01 72.8 °F 51.4 °F 29.86 in ESE 1.0 mph 9.0 mph 47 % 0.00 in 0.00 W/m2
23:06 72.7 °F 51.3 °F 29.86 in Calm   11.0 mph 47 % 0.00 in 0.00 W/m2
23:12 72.7 °F 51.3 °F 29.86 in East 8.0 mph 13.0 mph 47 % 0.00 in 0.00 W/m2
23:17 72.6 °F 51.2 °F 29.85 in East 1.0 mph 13.0 mph 47 % 0.00 in 0.00 W/m2
23:22 72.6 °F 51.2 °F 29.85 in ESE 2.0 mph 12.0 mph 47 % 0.00 in 0.00 W/m2
23:27 72.6 °F 51.2 °F 29.86 in East 6.0 mph 8.0 mph 47 % 0.00 in 0.00 W/m2
23:32 72.5 °F 51.2 °F 29.86 in East 2.0 mph 13.0 mph 47 % 0.00 in 0.00 W/m2
23:37 72.5 °F 51.2 °F 29.86 in Calm   8.0 mph 47 % 0.00 in 0.00 W/m2
23:42 72.5 °F 51.2 °F 29.86 in ESE 5.0 mph 13.0 mph 47 % 0.00 in 0.00 W/m2
23:47 72.5 °F 51.2 °F 29.86 in ESE 2.0 mph 11.0 mph 47 % 0.00 in 0.00 W/m2
23:52 72.5 °F 51.2 °F 29.86 in ESE 7.0 mph 8.0 mph 47 % 0.00 in 0.00 W/m2
23:57 72.4 °F 50.5 °F 29.85 in ESE 8.0 mph 12.0 mph 46 % 0.00 in 0.00 W/m2
Juneau County Weather
Compliments of Weather Underground - 4.5 mb
 WU-history PHP script courtesy of   Juneau County Weather.
powered by Cumulus v1.9.3 (1059)
Ambient Weather VWS v14.00
Top Contact Website Map Copyright © 2007 - 2018 Foresthillweather.com Never base important decisions on this or any weather information obtained from the Internet